| time (UTC) | temp F | wind direction | speed MPH | gust MPH | rain 1hr in | rain 24hr in | rain mn in | humidity % | barometer mb |
| 20260901161529 | 63 | 227 | 5.0 | 12.0 | 0.00 | 0.00 | 0.00 | 72 | 1009.5 |
| 20260901161019 | 63 | 222 | 5.0 | 10.0 | 0.00 | 0.00 | 0.00 | 73 | 1009.6 |
| 20260901160513 | 63 | 238 | 6.0 | 13.0 | 0.00 | 0.00 | 0.00 | 73 | 1009.6 |
| 20260901160007 | 63 | 254 | 6.0 | 13.0 | 0.00 | 0.00 | 0.00 | 73 | 1009.6 |
| 20260901155501 | 63 | 257 | 4.0 | 11.0 | 0.00 | 0.00 | 0.00 | 74 | 1009.6 |
| 20260901154956 | 63 | 269 | 4.0 | 8.0 | 0.00 | 0.00 | 0.00 | 75 | 1009.6 |
| 20260901154453 | 62 | 250 | 5.0 | 8.0 | 0.00 | 0.00 | 0.00 | 76 | 1009.6 |
| 20260901153946 | 62 | 207 | 5.0 | 8.0 | 0.00 | 0.00 | 0.00 | 77 | 1009.7 |
| 20260901153437 | 62 | 227 | 5.0 | 12.0 | 0.00 | 0.00 | 0.00 | 77 | 1009.7 |
| 20260901152931 | 61 | 174 | 4.0 | 10.0 | 0.00 | 0.00 | 0.00 | 79 | 1009.7 |
| 20260901152431 | 61 | 207 | 3.0 | 7.0 | 0.00 | 0.00 | 0.00 | 80 | 1009.7 |
| 20260901151930 | 60 | 191 | 1.0 | 4.0 | 0.00 | 0.00 | 0.00 | 82 | 1009.7 |
| 20260901151435 | 60 | 111 | 1.0 | 3.0 | 0.00 | 0.00 | 0.00 | 83 | 1009.7 |
| 20260901150907 | 59 | 59 | 1.0 | 2.0 | 0.00 | 0.00 | 0.00 | 84 | 1009.7 |
| 20260901150401 | 59 | 13 | 1.0 | 3.0 | 0.00 | 0.00 | 0.00 | 85 | 1009.7 |
| 20260901145859 | 58 | 42 | 1.0 | 3.0 | 0.00 | 0.00 | 0.00 | 86 | 1009.7 |
| 20260901145345 | 58 | 48 | 1.0 | 2.0 | 0.00 | 0.00 | 0.00 | 86 | 1009.6 |
| 20260901144848 | 58 | 136 | 1.0 | 1.0 | 0.00 | 0.00 | 0.00 | 86 | 1009.6 |
| 20260901144625 | 57 | 136 | 1.0 | 1.0 | 0.00 | 0.00 | 0.00 | 86 | 1009.6 |
| 20260901144323 | 57 | 136 | 0.0 | 1.0 | 0.00 | 0.00 | 0.00 | 87 | 1009.5 |
| 20260901143332 | 57 | 202 | 1.0 | 2.0 | 0.00 | 0.00 | 0.00 | 87 | 1009.5 |
| 20260901142831 | 57 | 202 | 1.0 | 3.0 | 0.00 | 0.00 | 0.00 | 87 | 1009.5 |
| 20260901142629 | 57 | 198 | 2.0 | 3.0 | 0.00 | 0.00 | 0.00 | 87 | 1009.6 |
| 20260901142232 | 57 | 225 | 2.0 | 3.0 | 0.00 | 0.00 | 0.00 | 87 | 1009.6 |
| 20260901141334 | 57 | 187 | 2.0 | 4.0 | 0.00 | 0.00 | 0.00 | 87 | 1009.6 |
| 20260901140837 | 57 | 186 | 2.0 | 4.0 | 0.00 | 0.00 | 0.00 | 87 | 1009.4 |
| 20260901140651 | 56 | 211 | 2.0 | 4.0 | 0.00 | 0.00 | 0.00 | 87 | 1009.4 |
| 20260901135843 | 56 | 266 | 2.0 | 4.0 | 0.00 | 0.00 | 0.00 | 87 | 1009.4 |
| 20260901135327 | 56 | 245 | 2.0 | 5.0 | 0.00 | 0.00 | 0.00 | 87 | 1009.3 |
| 20260901134826 | 56 | 221 | 2.0 | 5.0 | 0.00 | 0.00 | 0.00 | 87 | 1009.3 |
| 20260901134322 | 56 | 225 | 2.0 | 4.0 | 0.00 | 0.00 | 0.00 | 87 | 1009.3 |
| 20260901133824 | 56 | 243 | 2.0 | 4.0 | 0.00 | 0.00 | 0.00 | 87 | 1009.3 |
| 20260901133319 | 56 | 236 | 2.0 | 5.0 | 0.00 | 0.00 | 0.00 | 87 | 1009.3 |
| 20260901132927 | 56 | 201 | 3.0 | 5.0 | 0.00 | 0.00 | 0.00 | 87 | 1009.3 |
| 20260901131811 | 56 | 221 | 1.0 | 4.0 | 0.00 | 0.00 | 0.00 | 86 | 1009.3 |
| 20260901131309 | 56 | 247 | 2.0 | 5.0 | 0.00 | 0.00 | 0.00 | 86 | 1009.3 |
| 20260901130809 | 56 | 229 | 2.0 | 5.0 | 0.00 | 0.00 | 0.00 | 86 | 1009.4 |
| 20260901130304 | 56 | 238 | 2.0 | 5.0 | 0.00 | 0.00 | 0.00 | 86 | 1009.4 |
| 20260901130123 | 56 | 269 | 2.0 | 3.0 | 0.00 | 0.00 | 0.00 | 86 | 1009.4 |
| 20260901125309 | 56 | 246 | 1.0 | 2.0 | 0.00 | 0.00 | 0.00 | 85 | 1009.2 |
| 20260901124808 | 56 | 269 | 1.0 | 2.0 | 0.00 | 0.00 | 0.00 | 85 | 1009.2 |
| 20260901124309 | 57 | 248 | 1.0 | 2.0 | 0.00 | 0.00 | 0.00 | 85 | 1009.2 |
| 20260901123801 | 57 | 204 | 1.0 | 2.0 | 0.00 | 0.00 | 0.00 | 85 | 1009.2 |
| 20260901123620 | 57 | 220 | 2.0 | 4.0 | 0.00 | 0.00 | 0.00 | 85 | 1009.2 |
| 20260901122803 | 57 | 233 | 2.0 | 4.0 | 0.00 | 0.00 | 0.00 | 85 | 1009.2 |
| 20260901122307 | 57 | 220 | 1.0 | 3.0 | 0.00 | 0.00 | 0.00 | 85 | 1009.2 |
| 20260901121809 | 57 | 243 | 1.0 | 3.0 | 0.00 | 0.00 | 0.00 | 84 | 1009.2 |
| 20260901121304 | 57 | 224 | 1.0 | 2.0 | 0.00 | 0.00 | 0.00 | 84 | 1009.2 |
| 20260901120803 | 57 | 209 | 1.0 | 2.0 | 0.00 | 0.00 | 0.00 | 84 | 1009.1 |
| 20260901120302 | 57 | 246 | 1.0 | 3.0 | 0.00 | 0.00 | 0.00 | 84 | 1009.1 |
| 20260901115805 | 57 | 240 | 1.0 | 3.0 | 0.00 | 0.00 | 0.00 | 83 | 1009.1 |
| 20260901115308 | 57 | 182 | 1.0 | 2.0 | 0.00 | 0.00 | 0.00 | 83 | 1009.1 |
| 20260901114803 | 57 | 182 | 1.0 | 3.0 | 0.00 | 0.00 | 0.00 | 84 | 1009.1 |
| 20260901114537 | 57 | 219 | 1.0 | 3.0 | 0.00 | 0.00 | 0.00 | 84 | 1009.1 |
| 20260901113808 | 57 | 179 | 1.0 | 2.0 | 0.00 | 0.00 | 0.00 | 84 | 1009.0 |
| 20260901113315 | 56 | 269 | 1.0 | 1.0 | 0.00 | 0.00 | 0.00 | 84 | 1009.0 |
| 20260901112812 | 56 | 269 | 0.0 | 1.0 | 0.00 | 0.00 | 0.00 | 84 | 1009.0 |
| 20260901112256 | 56 | 269 | 0.0 | 1.0 | 0.00 | 0.00 | 0.00 | 84 | 1008.9 |
| 20260901111744 | 56 | 269 | 0.0 | 1.0 | 0.00 | 0.00 | 0.00 | 83 | 1008.9 |
| 20260901111246 | 56 | 269 | 0.0 | 0.0 | 0.00 | 0.00 | 0.00 | 83 | 1008.9 |
| 20260901111156 | 56 | 269 | 0.0 | 0.0 | 0.00 | 0.00 | 0.00 | 83 | 1008.7 |
| 20260901105735 | 57 | 269 | 0.0 | 1.0 | 0.00 | 0.00 | 0.00 | 82 | 1008.7 |
| 20260901105208 | 57 | 269 | 0.0 | 1.0 | 0.00 | 0.00 | 0.00 | 82 | 1008.7 |
| 20260901104950 | 57 | 269 | 1.0 | 2.0 | 0.00 | 0.00 | 0.00 | 82 | 1008.7 |
| 20260901104201 | 57 | 269 | 1.0 | 2.0 | 0.00 | 0.00 | 0.00 | 82 | 1008.7 |
| 20260901103705 | 57 | 225 | 1.0 | 2.0 | 0.00 | 0.00 | 0.00 | 82 | 1008.7 |
| 20260901103201 | 57 | 226 | 1.0 | 3.0 | 0.00 | 0.00 | 0.00 | 82 | 1008.7 |
| 20260901102703 | 57 | 204 | 1.0 | 3.0 | 0.00 | 0.00 | 0.00 | 82 | 1008.7 |
| 20260901102202 | 57 | 234 | 1.0 | 2.0 | 0.00 | 0.00 | 0.00 | 81 | 1008.6 |
| 20260901101702 | 58 | 234 | 1.0 | 3.0 | 0.00 | 0.00 | 0.00 | 81 | 1008.6 |
| 20260901101202 | 58 | 238 | 1.0 | 3.0 | 0.00 | 0.00 | 0.00 | 81 | 1008.6 |
| 20260901100714 | 58 | 244 | 0.0 | 2.0 | 0.00 | 0.00 | 0.00 | 81 | 1008.4 |
| 20260901100159 | 58 | 242 | 1.0 | 1.0 | 0.00 | 0.00 | 0.00 | 80 | 1008.4 |
| 20260901095634 | 58 | 242 | 0.0 | 1.0 | 0.00 | 0.00 | 0.00 | 80 | 1008.2 |
| 20260901095145 | 58 | 242 | 0.0 | 1.0 | 0.00 | 0.00 | 0.00 | 80 | 1008.2 |
| 20260901094631 | 58 | 242 | 1.0 | 2.0 | 0.00 | 0.00 | 0.00 | 80 | 1008.2 |
| 20260901094415 | 58 | 242 | 1.0 | 2.0 | 0.00 | 0.00 | 0.00 | 80 | 1008.3 |
| 20260901093629 | 58 | 242 | 1.0 | 2.0 | 0.00 | 0.00 | 0.00 | 80 | 1008.3 |
| 20260901093138 | 58 | 242 | 0.0 | 1.0 | 0.00 | 0.00 | 0.00 | 80 | 1008.3 |
| 20260901092633 | 58 | 242 | 0.0 | 1.0 | 0.00 | 0.00 | 0.00 | 79 | 1008.3 |
| 20260901092135 | 59 | 245 | 1.0 | 2.0 | 0.00 | 0.00 | 0.00 | 78 | 1008.3 |
| 20260901091637 | 59 | 245 | 1.0 | 2.0 | 0.00 | 0.00 | 0.00 | 78 | 1008.3 |
| 20260901091427 | 59 | 227 | 1.0 | 2.0 | 0.00 | 0.00 | 0.00 | 78 | 1008.5 |
| 20260901090622 | 59 | 243 | 2.0 | 4.0 | 0.00 | 0.00 | 0.00 | 78 | 1008.5 |
| 20260901090121 | 59 | 220 | 2.0 | 4.0 | 0.00 | 0.00 | 0.00 | 78 | 1008.5 |
| 20260901085620 | 59 | 244 | 1.0 | 3.0 | 0.00 | 0.00 | 0.00 | 79 | 1008.5 |
| 20260901085117 | 59 | 245 | 1.0 | 2.0 | 0.00 | 0.00 | 0.00 | 79 | 1008.5 |
| 20260901084619 | 59 | 226 | 0.0 | 2.0 | 0.00 | 0.00 | 0.00 | 79 | 1008.5 |
| 20260901084415 | 59 | 140 | 0.0 | 2.0 | 0.00 | 0.00 | 0.00 | 78 | 1008.2 |
| 20260901083618 | 59 | 136 | 0.0 | 2.0 | 0.00 | 0.00 | 0.00 | 78 | 1008.2 |
| 20260901083105 | 59 | 29 | 0.0 | 0.0 | 0.00 | 0.00 | 0.00 | 76 | 1008.2 |
| 20260901082558 | 59 | 29 | 0.0 | 1.0 | 0.00 | 0.00 | 0.00 | 76 | 1008.2 |
| 20260901082044 | 59 | 29 | 0.0 | 1.0 | 0.00 | 0.00 | 0.00 | 77 | 1008.2 |
| 20260901081539 | 59 | 29 | 0.0 | 1.0 | 0.00 | 0.00 | 0.00 | 77 | 1008.2 |
| 20260901081037 | 59 | 29 | 0.0 | 1.0 | 0.00 | 0.00 | 0.00 | 76 | 1008.2 |
| 20260901080537 | 59 | 29 | 0.0 | 1.0 | 0.00 | 0.00 | 0.00 | 75 | 1008.2 |
| 20260901080037 | 59 | 29 | 0.0 | 1.0 | 0.00 | 0.00 | 0.00 | 75 | 1008.2 |
| 20260901075550 | 60 | 29 | 1.0 | 2.0 | 0.00 | 0.00 | 0.00 | 74 | 1008.1 |
| 20260901075032 | 60 | 29 | 1.0 | 2.0 | 0.00 | 0.00 | 0.00 | 76 | 1008.1 |
| 20260901074533 | 60 | 29 | 1.0 | 2.0 | 0.00 | 0.00 | 0.00 | 74 | 1008.1 |
| 20260901074035 | 60 | 273 | 1.0 | 1.0 | 0.00 | 0.00 | 0.00 | 74 | 1008.1 |
| 20260901073516 | 61 | 225 | 1.0 | 1.0 | 0.00 | 0.00 | 0.00 | 76 | 1008.1 |
| 20260901073014 | 61 | 225 | 0.0 | 1.0 | 0.00 | 0.00 | 0.00 | 73 | 1008.1 |
| 20260901072519 | 61 | 207 | 0.0 | 2.0 | 0.00 | 0.00 | 0.00 | 73 | 1008.1 |
| 20260901072330 | 61 | 207 | 0.0 | 2.0 | 0.00 | 0.00 | 0.00 | 73 | 1008.1 |
| 20260901071013 | 62 | 213 | 1.0 | 3.0 | 0.00 | 0.00 | 0.00 | 71 | 1007.8 |
| 20260901070512 | 61 | 359 | 1.0 | 2.0 | 0.00 | 0.00 | 0.00 | 71 | 1007.8 |
| 20260901070009 | 62 | 359 | 1.0 | 2.0 | 0.00 | 0.00 | 0.00 | 71 | 1007.8 |
| 20260901065506 | 62 | 359 | 1.0 | 2.0 | 0.00 | 0.00 | 0.00 | 72 | 1007.7 |
| 20260901065113 | 62 | 359 | 0.0 | 1.0 | 0.00 | 0.00 | 0.00 | 72 | 1007.7 |
| 20260901063951 | 62 | 359 | 0.0 | 0.0 | 0.00 | 0.00 | 0.00 | 70 | 1007.7 |
| 20260901063433 | 62 | 359 | 0.0 | 1.0 | 0.00 | 0.00 | 0.00 | 71 | 1007.7 |
| 20260901063234 | 62 | 359 | 1.0 | 1.0 | 0.00 | 0.00 | 0.00 | 71 | 1007.7 |
| 20260901062411 | 62 | 359 | 1.0 | 2.0 | 0.00 | 0.00 | 0.00 | 69 | 1007.7 |
| 20260901061910 | 62 | 359 | 1.0 | 2.0 | 0.00 | 0.00 | 0.00 | 68 | 1007.7 |
| 20260901061403 | 62 | 359 | 2.0 | 3.0 | 0.00 | 0.00 | 0.00 | 70 | 1007.7 |
| 20260901060904 | 62 | 359 | 2.0 | 3.0 | 0.00 | 0.00 | 0.00 | 68 | 1007.7 |
| 20260901060401 | 63 | 13 | 2.0 | 3.0 | 0.00 | 0.00 | 0.00 | 71 | 1007.7 |
| 20260901055902 | 63 | 13 | 1.0 | 3.0 | 0.00 | 0.00 | 0.00 | 70 | 1007.7 |
| 20260901055409 | 64 | 9 | 1.0 | 2.0 | 0.00 | 0.00 | 0.00 | 69 | 1007.8 |
| 20260901054905 | 64 | 359 | 1.0 | 2.0 | 0.00 | 0.00 | 0.00 | 68 | 1007.8 |
| 20260901054339 | 65 | 331 | 1.0 | 2.0 | 0.00 | 0.00 | 0.00 | 65 | 1007.8 |
| 20260901053833 | 65 | 331 | 0.0 | 2.0 | 0.00 | 0.00 | 0.00 | 64 | 1007.8 |
| 20260901053338 | 65 | 331 | 0.0 | 1.0 | 0.00 | 0.00 | 0.00 | 64 | 1007.8 |
| 20260901053051 | 65 | 331 | 1.0 | 2.0 | 0.00 | 0.00 | 0.00 | 62 | 1007.8 |
| 20260901052335 | 65 | 331 | 2.0 | 3.0 | 0.00 | 0.00 | 0.00 | 61 | 1007.8 |
| 20260901051833 | 65 | 331 | 3.0 | 4.0 | 0.00 | 0.00 | 0.00 | 61 | 1007.8 |
| 20260901051610 | 66 | 330 | 3.0 | 4.0 | 0.00 | 0.00 | 0.00 | 62 | 1007.8 |
| 20260901051102 | 66 | 337 | 3.0 | 4.0 | 0.00 | 0.00 | 0.00 | 64 | 1007.8 |
| 20260901050253 | 66 | 359 | 3.0 | 4.0 | 0.00 | 0.00 | 0.00 | 64 | 1007.8 |
| 20260901050114 | 66 | 20 | 3.0 | 4.0 | 0.00 | 0.00 | 0.00 | 60 | 1007.8 |
| 20260901045256 | 67 | 32 | 3.0 | 5.0 | 0.00 | 0.00 | 0.00 | 62 | 1007.8 |
| 20260901045054 | 67 | 27 | 3.0 | 5.0 | 0.00 | 0.00 | 0.00 | 59 | 1007.8 |
| 20260901044535 | 67 | 36 | 3.0 | 5.0 | 0.00 | 0.00 | 0.00 | 59 | 1007.8 |
| 20260901043740 | 67 | 24 | 4.0 | 7.0 | 0.00 | 0.00 | 0.00 | 59 | 1007.6 |
| 20260901043238 | 68 | 4 | 4.0 | 7.0 | 0.00 | 0.00 | 0.00 | 59 | 1007.6 |
| 20260901042737 | 68 | 24 | 5.0 | 9.0 | 0.00 | 0.00 | 0.00 | 57 | 1007.6 |
| 20260901042235 | 68 | 15 | 5.0 | 9.0 | 0.00 | 0.00 | 0.00 | 56 | 1007.6 |
| 20260901041738 | 68 | 21 | 5.0 | 9.0 | 0.00 | 0.00 | 0.00 | 57 | 1007.6 |
| 20260901041547 | 68 | 32 | 4.0 | 6.0 | 0.00 | 0.00 | 0.00 | 56 | 1007.6 |
| 20260901041102 | 68 | 16 | 3.0 | 6.0 | 0.00 | 0.00 | 0.00 | 55 | 1007.6 |
| 20260901040235 | 69 | 27 | 3.0 | 5.0 | 0.00 | 0.00 | 0.00 | 58 | 1007.6 |
| 20260901035739 | 69 | 29 | 3.0 | 6.0 | 0.00 | 0.00 | 0.00 | 55 | 1007.6 |
| 20260901035232 | 69 | 353 | 4.0 | 6.0 | 0.00 | 0.00 | 0.00 | 53 | 1007.3 |
| 20260901034733 | 69 | 346 | 4.0 | 6.0 | 0.00 | 0.00 | 0.00 | 53 | 1007.3 |
| 20260901034234 | 69 | 38 | 4.0 | 6.0 | 0.00 | 0.00 | 0.00 | 55 | 1007.3 |
| 20260901033729 | 69 | 350 | 3.0 | 5.0 | 0.00 | 0.00 | 0.00 | 54 | 1007.1 |
| 20260901033224 | 70 | 344 | 3.0 | 4.0 | 0.00 | 0.00 | 0.00 | 55 | 1007.1 |
| 20260901032725 | 70 | 359 | 2.0 | 4.0 | 0.00 | 0.00 | 0.00 | 54 | 1007.1 |
| 20260901032226 | 71 | 354 | 2.0 | 4.0 | 0.00 | 0.00 | 0.00 | 53 | 1007.1 |
| 20260901031720 | 71 | 352 | 3.0 | 6.0 | 0.00 | 0.00 | 0.00 | 53 | 1007.1 |
| 20260901031217 | 71 | 348 | 3.0 | 6.0 | 0.00 | 0.00 | 0.00 | 52 | 1007.1 |
| 20260901030717 | 71 | 359 | 3.0 | 6.0 | 0.00 | 0.00 | 0.00 | 50 | 1006.8 |
| 20260901030223 | 72 | 33 | 4.0 | 6.0 | 0.00 | 0.00 | 0.00 | 49 | 1006.8 |
| 20260901025718 | 72 | 30 | 4.0 | 6.0 | 0.00 | 0.00 | 0.00 | 49 | 1006.8 |
| 20260901025211 | 73 | 70 | 4.0 | 6.0 | 0.00 | 0.00 | 0.00 | 49 | 1006.7 |
| 20260901024711 | 73 | 16 | 4.0 | 7.0 | 0.00 | 0.00 | 0.00 | 48 | 1006.7 |
| 20260901024220 | 73 | 18 | 4.0 | 7.0 | 0.00 | 0.00 | 0.00 | 47 | 1006.7 |
| 20260901023710 | 74 | 42 | 4.0 | 7.0 | 0.00 | 0.00 | 0.00 | 47 | 1006.6 |
| 20260901023202 | 74 | 24 | 5.0 | 8.0 | 0.00 | 0.00 | 0.00 | 46 | 1006.6 |
| 20260901023013 | 75 | 47 | 5.0 | 8.0 | 0.00 | 0.00 | 0.00 | 45 | 1006.6 |
| 20260901022203 | 75 | 63 | 4.0 | 7.0 | 0.00 | 0.00 | 0.00 | 44 | 1006.7 |
| 20260901021705 | 75 | 34 | 4.0 | 6.0 | 0.00 | 0.00 | 0.00 | 44 | 1006.7 |
| 20260901021545 | 75 | 50 | 4.0 | 9.0 | 0.00 | 0.00 | 0.00 | 44 | 1006.7 |
| 20260901020701 | 76 | 62 | 4.0 | 9.0 | 0.00 | 0.00 | 0.00 | 44 | 1006.7 |
| 20260901020516 | 76 | 46 | 5.0 | 9.0 | 0.00 | 0.00 | 0.00 | 43 | 1006.7 |
| 20260901015648 | 76 | 79 | 4.0 | 9.0 | 0.00 | 0.00 | 0.00 | 39 | 1006.7 |
| 20260901015517 | 76 | 45 | 3.0 | 6.0 | 0.00 | 0.00 | 0.00 | 43 | 1006.9 |
| 20260901014645 | 76 | 34 | 4.0 | 8.0 | 0.00 | 0.00 | 0.00 | 42 | 1006.9 |
| 20260901014140 | 76 | 67 | 4.0 | 8.0 | 0.00 | 0.00 | 0.00 | 42 | 1007.0 |
| 20260901013640 | 76 | 65 | 5.0 | 9.0 | 0.00 | 0.00 | 0.00 | 42 | 1007.0 |
| 20260901013140 | 76 | 74 | 5.0 | 10.0 | 0.00 | 0.00 | 0.00 | 41 | 1007.0 |
| 20260901012644 | 76 | 70 | 5.0 | 10.0 | 0.00 | 0.00 | 0.00 | 41 | 1007.1 |
| 20260901012138 | 77 | 83 | 5.0 | 9.0 | 0.00 | 0.00 | 0.00 | 41 | 1007.1 |
| 20260901011634 | 77 | 90 | 4.0 | 7.0 | 0.00 | 0.00 | 0.00 | 41 | 1007.1 |
| 20260901011134 | 77 | 71 | 3.0 | 6.0 | 0.00 | 0.00 | 0.00 | 40 | 1007.1 |
| 20260901010636 | 78 | 114 | 2.0 | 6.0 | 0.00 | 0.00 | 0.00 | 39 | 1007.1 |
| 20260901010138 | 78 | 14 | 2.0 | 5.0 | 0.00 | 0.00 | 0.00 | 39 | 1007.1 |
| 20260901005632 | 77 | 65 | 4.0 | 6.0 | 0.00 | 0.00 | 0.00 | 40 | 1007.1 |
| 20260901005136 | 77 | 71 | 4.0 | 6.0 | 0.00 | 0.00 | 0.00 | 40 | 1007.1 |
| 20260901004631 | 77 | 77 | 4.0 | 6.0 | 0.00 | 0.00 | 0.00 | 39 | 1007.1 |
| 20260901004130 | 77 | 45 | 4.0 | 6.0 | 0.00 | 0.00 | 0.00 | 39 | 1007.1 |
| 20260901003637 | 77 | 74 | 4.0 | 6.0 | 0.00 | 0.00 | 0.00 | 40 | 1007.1 |
| 20260901003132 | 77 | 105 | 3.0 | 6.0 | 0.00 | 0.00 | 0.00 | 39 | 1007.1 |
| 20260901002924 | 78 | 39 | 2.0 | 4.0 | 0.00 | 0.00 | 0.00 | 39 | 1007.2 |
| 20260901002140 | 77 | 32 | 2.0 | 4.0 | 0.00 | 0.00 | 0.00 | 39 | 1007.2 |
| 20260901001643 | 77 | 344 | 2.0 | 6.0 | 0.00 | 0.00 | 0.00 | 39 | 1007.2 |
| 20260901001135 | 77 | 19 | 3.0 | 6.0 | 0.00 | 0.00 | 0.00 | 40 | 1007.4 |
| 20260901000620 | 77 | 340 | 3.0 | 5.0 | 0.00 | 0.00 | 0.00 | 40 | 1007.4 |
| 20260901000119 | 76 | 9 | 3.0 | 5.0 | 0.00 | 0.00 | 0.00 | 41 | 1007.4 |
| 20260831235616 | 76 | 4 | 3.0 | 4.0 | 0.00 | 0.00 | 0.00 | 43 | 1007.6 |
| 20260831235354 | 76 | 13 | 3.0 | 4.0 | 0.00 | 0.00 | 0.00 | 42 | 1007.6 |
| 20260831234609 | 77 | 340 | 3.0 | 5.0 | 0.00 | 0.00 | 0.00 | 41 | 1007.6 |
| 20260831234111 | 77 | 323 | 3.0 | 5.0 | 0.00 | 0.00 | 0.00 | 41 | 1007.6 |
| 20260831233604 | 77 | 346 | 3.0 | 5.0 | 0.00 | 0.00 | 0.00 | 40 | 1007.6 |
| 20260831233102 | 77 | 340 | 3.0 | 4.0 | 0.00 | 0.00 | 0.00 | 41 | 1007.6 |
| 20260831232606 | 76 | 329 | 3.0 | 6.0 | 0.00 | 0.00 | 0.00 | 40 | 1007.6 |
| 20260831232110 | 76 | 344 | 3.0 | 6.0 | 0.00 | 0.00 | 0.00 | 41 | 1007.6 |
| 20260831231607 | 76 | 359 | 3.0 | 5.0 | 0.00 | 0.00 | 0.00 | 41 | 1007.6 |
| 20260831231108 | 76 | 331 | 3.0 | 5.0 | 0.00 | 0.00 | 0.00 | 41 | 1007.7 |
| 20260831230602 | 76 | 359 | 3.0 | 5.0 | 0.00 | 0.00 | 0.00 | 42 | 1007.7 |
| 20260831225614 | 75 | 354 | 4.0 | 6.0 | 0.00 | 0.00 | 0.00 | 44 | 1007.9 |
| 20260831225105 | 75 | 354 | 4.0 | 6.0 | 0.00 | 0.00 | 0.00 | 43 | 1007.9 |
| 20260831224606 | 75 | 13 | 4.0 | 6.0 | 0.00 | 0.00 | 0.00 | 44 | 1007.9 |
| 20260831224102 | 75 | 359 | 4.0 | 6.0 | 0.00 | 0.00 | 0.00 | 45 | 1008.1 |
| 20260831223556 | 75 | 17 | 4.0 | 6.0 | 0.00 | 0.00 | 0.00 | 43 | 1008.1 |
| 20260831223340 | 75 | 359 | 3.0 | 5.0 | 0.00 | 0.00 | 0.00 | 43 | 1008.1 |
| 20260831222542 | 74 | 343 | 4.0 | 6.0 | 0.00 | 0.00 | 0.00 | 46 | 1008.3 |
| 20260831222047 | 74 | 352 | 5.0 | 6.0 | 0.00 | 0.00 | 0.00 | 45 | 1008.3 |
| 20260831221840 | 74 | 15 | 4.0 | 6.0 | 0.00 | 0.00 | 0.00 | 46 | 1008.3 |
| 20260831221043 | 74 | 9 | 5.0 | 7.0 | 0.00 | 0.00 | 0.00 | 44 | 1008.6 |
| 20260831220623 | 73 | 359 | 6.0 | 9.0 | 0.00 | 0.00 | 0.00 | 46 | 1008.6 |
| 20260831215539 | 73 | 16 | 6.0 | 9.0 | 0.00 | 0.00 | 0.00 | 48 | 1008.8 |
| 20260831215035 | 73 | 19 | 6.0 | 9.0 | 0.00 | 0.00 | 0.00 | 48 | 1008.8 |
| 20260831214530 | 72 | 342 | 7.0 | 9.0 | 0.00 | 0.00 | 0.00 | 49 | 1008.8 |
| 20260831214031 | 72 | 13 | 6.0 | 10.0 | 0.00 | 0.00 | 0.00 | 48 | 1009.1 |
| 20260831213531 | 72 | 14 | 6.0 | 10.0 | 0.00 | 0.00 | 0.00 | 49 | 1009.1 |
| 20260831213034 | 71 | 344 | 7.0 | 11.0 | 0.00 | 0.00 | 0.00 | 50 | 1009.1 |
| 20260831212529 | 71 | 13 | 6.0 | 11.0 | 0.00 | 0.00 | 0.00 | 52 | 1009.2 |
| 20260831212029 | 71 | 13 | 7.0 | 11.0 | 0.00 | 0.00 | 0.00 | 51 | 1009.2 |
| 20260831211537 | 71 | 339 | 8.0 | 11.0 | 0.00 | 0.00 | 0.00 | 51 | 1009.2 |
| 20260831211336 | 71 | 21 | 7.0 | 11.0 | 0.00 | 0.00 | 0.00 | 52 | 1009.3 |
| 20260831210530 | 71 | 9 | 6.0 | 10.0 | 0.00 | 0.00 | 0.00 | 54 | 1009.3 |
| 20260831210036 | 71 | 13 | 6.0 | 10.0 | 0.00 | 0.00 | 0.00 | 53 | 1009.3 |
| 20260831205535 | 70 | 30 | 6.0 | 10.0 | 0.00 | 0.00 | 0.00 | 55 | 1009.6 |
| 20260831205029 | 70 | 19 | 6.0 | 10.0 | 0.00 | 0.00 | 0.00 | 55 | 1009.6 |
| 20260831204515 | 70 | 9 | 7.0 | 11.0 | 0.00 | 0.00 | 0.00 | 55 | 1009.6 |
| 20260831204014 | 70 | 359 | 7.0 | 11.0 | 0.00 | 0.00 | 0.00 | 54 | 1009.7 |
| 20260831203507 | 70 | 334 | 6.0 | 10.0 | 0.00 | 0.00 | 0.00 | 54 | 1009.7 |
| 20260831203007 | 70 | 351 | 5.0 | 9.0 | 0.00 | 0.00 | 0.00 | 55 | 1009.7 |
| 20260831202503 | 70 | 4 | 4.0 | 7.0 | 0.00 | 0.00 | 0.00 | 55 | 1010.0 |
| 20260831202003 | 69 | 9 | 4.0 | 9.0 | 0.00 | 0.00 | 0.00 | 54 | 1010.0 |
| 20260831201506 | 69 | 4 | 5.0 | 9.0 | 0.00 | 0.00 | 0.00 | 56 | 1010.0 |
| 20260831201003 | 69 | 342 | 5.0 | 8.0 | 0.00 | 0.00 | 0.00 | 55 | 1010.2 |
| 20260831200504 | 68 | 9 | 6.0 | 10.0 | 0.00 | 0.00 | 0.00 | 58 | 1010.2 |
| 20260831200002 | 68 | 345 | 6.0 | 10.0 | 0.00 | 0.00 | 0.00 | 56 | 1010.2 |
| 20260831195504 | 68 | 354 | 6.0 | 10.0 | 0.00 | 0.00 | 0.00 | 57 | 1010.5 |
| 20260831195001 | 68 | 9 | 6.0 | 10.0 | 0.00 | 0.00 | 0.00 | 57 | 1010.5 |
| 20260831194502 | 68 | 9 | 5.0 | 9.0 | 0.00 | 0.00 | 0.00 | 58 | 1010.5 |
| 20260831194001 | 68 | 352 | 5.0 | 9.0 | 0.00 | 0.00 | 0.00 | 58 | 1010.8 |
| 20260831193501 | 67 | 340 | 5.0 | 9.0 | 0.00 | 0.00 | 0.00 | 59 | 1010.8 |
| 20260831193003 | 67 | 9 | 5.0 | 9.0 | 0.00 | 0.00 | 0.00 | 60 | 1010.8 |
| 20260831192505 | 67 | 331 | 5.0 | 9.0 | 0.00 | 0.00 | 0.00 | 59 | 1010.9 |
| 20260831192316 | 67 | 20 | 5.0 | 7.0 | 0.00 | 0.00 | 0.00 | 61 | 1010.9 |
| 20260831191502 | 67 | 14 | 5.0 | 8.0 | 0.00 | 0.00 | 0.00 | 62 | 1010.9 |
| 20260831191010 | 66 | 359 | 6.0 | 11.0 | 0.00 | 0.00 | 0.00 | 63 | 1011.2 |
| 20260831190505 | 66 | 354 | 5.0 | 11.0 | 0.00 | 0.00 | 0.00 | 61 | 1011.2 |
| 20260831190002 | 66 | 22 | 4.0 | 9.0 | 0.00 | 0.00 | 0.00 | 64 | 1011.2 |
| 20260831185454 | 66 | 42 | 6.0 | 15.0 | 0.00 | 0.00 | 0.00 | 62 | 1011.3 |
| 20260831184953 | 65 | 17 | 8.0 | 15.0 | 0.00 | 0.00 | 0.00 | 64 | 1011.3 |
| 20260831184537 | 65 | 344 | 8.0 | 11.0 | 0.00 | 0.00 | 0.00 | 64 | 1011.3 |
| 20260831183427 | 65 | 34 | 8.0 | 14.0 | 0.00 | 0.00 | 0.00 | 60 | 1011.4 |
| 20260831182932 | 65 | 9 | 7.0 | 11.0 | 0.00 | 0.00 | 0.00 | 64 | 1011.4 |
| 20260831182721 | 65 | 28 | 6.0 | 11.0 | 0.00 | 0.00 | 0.00 | 64 | 1011.8 |
| 20260831182218 | 65 | 335 | 5.0 | 11.0 | 0.00 | 0.00 | 0.00 | 63 | 1011.8 |
| 20260831181701 | 66 | 9 | 5.0 | 11.0 | 0.00 | 0.00 | 0.00 | 63 | 1011.8 |
| 20260831180903 | 65 | 59 | 5.0 | 12.0 | 0.00 | 0.00 | 0.00 | 63 | 1011.8 |
| 20260831180402 | 65 | 32 | 4.0 | 11.0 | 0.00 | 0.00 | 0.00 | 64 | 1011.8 |
| 20260831175902 | 65 | 53 | 5.0 | 13.0 | 0.00 | 0.00 | 0.00 | 64 | 1011.8 |
| 20260831175659 | 65 | 37 | 6.0 | 13.0 | 0.00 | 0.00 | 0.00 | 64 | 1011.9 |
| 20260831174905 | 64 | 60 | 8.0 | 13.0 | 0.00 | 0.00 | 0.00 | 65 | 1011.9 |
| 20260831174402 | 64 | 21 | 8.0 | 14.0 | 0.00 | 0.00 | 0.00 | 65 | 1011.9 |
| 20260831173904 | 63 | 45 | 8.0 | 14.0 | 0.00 | 0.00 | 0.00 | 66 | 1012.2 |
| 20260831173714 | 63 | 21 | 8.0 | 12.0 | 0.00 | 0.00 | 0.00 | 68 | 1012.2 |
| 20260831172903 | 62 | 359 | 7.0 | 12.0 | 0.00 | 0.00 | 0.00 | 72 | 1012.2 |
| 20260831172402 | 62 | 359 | 7.0 | 13.0 | 0.00 | 0.00 | 0.00 | 73 | 1012.3 |
| 20260831172009 | 62 | 26 | 7.0 | 13.0 | 0.00 | 0.00 | 0.00 | 73 | 1012.3 |
| 20260831170906 | 61 | 19 | 5.0 | 10.0 | 0.00 | 0.00 | 0.00 | 74 | 1012.3 |
| 20260831170405 | 61 | 354 | 6.0 | 11.0 | 0.00 | 0.00 | 0.00 | 75 | 1012.3 |
| 20260831165909 | 61 | 335 | 6.0 | 11.0 | 0.00 | 0.00 | 0.00 | 76 | 1012.3 |
| 20260831165414 | 60 | 346 | 5.0 | 10.0 | 0.00 | 0.00 | 0.00 | 77 | 1012.3 |
| 20260831165159 | 60 | 13 | 5.0 | 8.0 | 0.00 | 0.00 | 0.00 | 77 | 1012.3 |
| 20260831164401 | 60 | 9 | 5.0 | 7.0 | 0.00 | 0.00 | 0.00 | 78 | 1012.3 |
| 20260831163855 | 60 | 13 | 4.0 | 7.0 | 0.00 | 0.00 | 0.00 | 79 | 1012.4 |
| 20260831163345 | 60 | 347 | 4.0 | 7.0 | 0.00 | 0.00 | 0.00 | 80 | 1012.4 |
| 20260831162838 | 59 | 344 | 4.0 | 7.0 | 0.00 | 0.00 | 0.00 | 81 | 1012.4 |
| 20260831162340 | 59 | 340 | 4.0 | 6.0 | 0.00 | 0.00 | 0.00 | 81 | 1012.6 |